PST,Max TemperatureF,Mean TemperatureF,Min TemperatureF,Max Dew PointF,MeanDew PointF,Min DewpointF,Max Humidity, Mean Humidity, Min Humidity, Max Sea Level PressureIn, Mean Sea Level PressureIn, Min Sea Level PressureIn, Max VisibilityMiles, Mean VisibilityMiles, Min VisibilityMiles, Max Wind SpeedMPH, Mean Wind SpeedMPH, Max Gust SpeedMPH,PrecipitationIn, CloudCover, Events, WindDirDegrees
2014-2-1,35,31,26,26,23,20,75,66,56,30.23,30.16,30.08,10,10,10,10,4,14,0.00,7,,54
2014-2-2,35,31,27,27,25,22,85,75,64,30.11,29.98,29.89,10,8,2,12,5,15,0.03,7,Snow,267
2014-2-3,33,30,26,23,20,17,75,67,58,30.19,30.06,29.96,10,9,2,16,5,20,T,8,Snow,306
2014-2-4,26,22,17,19,7,1,68,57,45,30.48,30.34,30.17,10,10,6,17,9,23,T,8,Snow,50
2014-2-5,20,15,10,1,-2,-5,66,53,39,30.57,30.51,30.45,10,10,10,18,10,23,0.00,5,,73
2014-2-6,20,12,4,12,3,-7,80,62,43,30.44,30.07,29.76,10,7,1,14,7,17,0.06,5,Snow,80
2014-2-7,22,18,14,13,9,6,80,66,52,30.06,29.91,29.75,10,7,1,13,4,17,0.04,7,Snow,317
2014-2-8,23,21,18,16,14,12,84,76,68,30.21,30.00,29.81,10,4,1,13,3,16,0.26,8,Snow,236
2014-2-9,27,24,20,19,17,12,84,72,60,30.23,30.13,29.87,10,7,0,17,5,23,0.14,8,Fog-Snow,236
2014-2-10,32,28,23,27,22,20,85,77,69,30.28,30.20,30.12,10,7,4,9,2,10,T,7,,316
2014-2-11,50,41,31,33,30,27,85,70,54,30.16,30.08,29.91,10,9,4,21,6,27,0.05,5,Rain,92
2014-2-12,61,50,38,39,33,30,76,56,35,29.88,29.78,29.66,10,10,10,30,13,38,T,3,,188
2014-2-13,55,46,37,36,27,20,76,50,24,30.09,29.96,29.77,10,10,10,32,13,40,0.01,1,Rain,242
2014-2-14,53,45,37,37,31,24,82,64,45,30.00,29.89,29.81,10,10,10,15,7,20,0.01,4,Rain,129
2014-2-15,49,42,34,37,34,30,82,72,61,29.99,29.77,29.51,10,10,10,23,8,29,T,5,Rain,99
2014-2-16,50,44,38,28,22,17,71,50,29,30.06,29.91,29.66,10,10,10,36,11,50,T,5,,236
2014-2-17,53,45,36,35,26,21,60,47,34,29.98,29.81,29.73,10,10,10,33,16,40,T,5,Rain,212
2014-2-18,51,43,35,38,31,20,76,59,41,30.04,29.87,29.65,10,10,8,31,9,39,0.14,6,Rain,179
2014-2-19,47,41,34,26,23,18,64,51,37,30.17,30.01,29.81,10,10,10,31,10,39,T,5,,216
2014-2-20,49,42,34,30,27,23,64,52,39,30.17,30.06,30.01,10,10,10,23,9,30,0.00,7,,194
2014-2-21,50,43,35,26,23,18,70,51,31,30.14,30.10,30.07,10,10,10,24,9,34,0.00,5,,258
2014-2-22,38,35,32,28,25,20,85,69,52,30.17,30.12,30.06,10,7,2,12,4,14,T,8,Snow,144
2014-2-23,38,35,31,34,31,27,92,85,78,30.09,30.02,29.94,10,5,0,8,2,10,0.20,8,Fog-Rain-Snow,56
2014-2-24,40,37,33,35,32,29,92,86,79,30.24,30.13,30.03,10,7,0,14,4,17,0.21,8,Fog-Rain-Snow,260
2014-2-25,37,34,30,30,28,26,85,78,70,30.36,30.28,30.21,10,8,2,8,3,9,0.04,8,Snow,231
2014-2-26,44,40,35,31,30,29,82,71,60,30.22,30.03,29.85,10,10,9,13,4,14,0.00,7,,280
2014-2-27,39,36,33,32,30,30,89,83,76,29.82,29.75,29.71,10,8,2,10,4,12,0.12,8,Rain-Snow,270
2014-2-28,40,37,33,35,32,26,89,84,79,29.79,29.69,29.56,10,7,0,21,3,28,0.06,8,Fog-Rain-Snow,76